Location: Newark
(48.0000°N, 67.0000°E)
Time: 13:01:04
(UTC+00:00)

Vanguard 2 - Pass Details

Date: 24 February 2020
Orbit: 552 x 2938 km, 32.9° (Epoch: 08 April)

Event Time Altitude Azimuth Distance (km) Brightness Sun altitude
Exits shadow 23:27:47 36° 206° (SSW) 2,948 10.0 -29.6°
Maximum altitude 23:31:12 41° 176° (S) 2,975 10.3 -29.0°
Drops below altitude 10° 23:45:42 10° 115° (ESE) 5,605 12.5 -26.7°
Sets 23:50:45 0° 109° (ESE) 6,750 13.2 -25.9°
